EJU76QC LSGG-LEMG

Flight info

Callsign EJU76QC
Flight time 2h 8m
Altitude 35000
Route DEPUL T544 LSE DCT RUSIT DCT ESIDA DCT LERGA DCT MINSO DCT NARAK DCT AGN DCT MAQAB DCT TIVLI DCT ELSAP DCT ZAR DCT EXEMU DCT PISUS DCT EDIMU DCT ADUXO DCT NUSGO DCT OBIBO DCT NASOS L27 BLN
Aircraft A320/M-SDE2E3FGHIJ1RWXYZ/LB1

Departure

Time 2026-05-04 19:01
Airport Geneva International Airport (LSGG)

Arrival

Time 2026-05-04 21:09
Airport Málaga-Costa del Sol Airport (LEMG)
Time Latitude Longitude Altitude Speed Heading
2026-05-04 18:32 46.23341 6.10662 1405 ft 0 kts 270°
2026-05-04 18:53 46.23341 6.10646 1403 ft 6 kts 270°
2026-05-04 18:54 46.23359 6.10597 1403 ft 4 kts 348°
2026-05-04 18:54 46.23414 6.10653 1396 ft 13 kts 44°
2026-05-04 18:54 46.23480 6.10751 1386 ft 14 kts 46°
2026-05-04 18:54 46.23550 6.10856 1389 ft 15 kts 47°
2026-05-04 18:55 46.23627 6.10965 1387 ft 16 kts 44°
2026-05-04 18:55 46.23814 6.11237 1376 ft 23 kts 45°
2026-05-04 18:55 46.23930 6.11409 1373 ft 25 kts 46°
2026-05-04 18:56 46.24055 6.11594 1369 ft 27 kts 46°
2026-05-04 18:56 46.24189 6.11789 1364 ft 27 kts 45°
2026-05-04 18:56 46.24317 6.11977 1363 ft 25 kts 45°
2026-05-04 18:56 46.24423 6.12133 1370 ft 19 kts 45°
2026-05-04 18:57 46.24503 6.12251 1372 ft 15 kts 46°
2026-05-04 18:57 46.24581 6.12364 1371 ft 19 kts 44°
2026-05-04 18:57 46.24694 6.12530 1363 ft 28 kts 45°
2026-05-04 18:57 46.24837 6.12684 1363 ft 23 kts 17°
2026-05-04 18:58 46.24922 6.12721 1365 ft 0 kts 16°
2026-05-04 18:59 46.24969 6.12728 1369 ft 12 kts 347°
2026-05-04 18:59 46.24991 6.12667 1371 ft 8 kts 269°
2026-05-04 19:00 46.24886 6.12480 1372 ft 43 kts 226°
2026-05-04 19:00 46.24523 6.11947 1372 ft 104 kts 225°
2026-05-04 19:00 46.23893 6.11023 1379 ft 152 kts 225°
2026-05-04 19:00 46.23073 6.09834 1650 ft 173 kts 225°
2026-05-04 19:01 46.22215 6.08595 2276 ft 175 kts 226°
2026-05-04 19:01 46.21373 6.07333 2989 ft 174 kts 225°
2026-05-04 19:01 46.20494 6.06030 3338 ft 191 kts 224°
2026-05-04 19:01 46.19512 6.04597 3554 ft 211 kts 224°
2026-05-04 19:02 46.18433 6.03024 3818 ft 231 kts 224°
2026-05-04 19:02 46.17263 6.01322 4235 ft 250 kts 224°
2026-05-04 19:02 46.16032 5.99527 4919 ft 257 kts 224°
2026-05-04 19:02 46.14808 5.97704 5767 ft 258 kts 224°
2026-05-04 19:03 46.13612 5.95900 6599 ft 259 kts 225°
2026-05-04 19:03 46.12435 5.93898 7348 ft 263 kts 233°
2026-05-04 19:03 46.11395 5.91703 8085 ft 267 kts 236°
2026-05-04 19:03 46.10387 5.89431 8822 ft 272 kts 236°
2026-05-04 19:04 46.09377 5.87116 9598 ft 275 kts 237°
2026-05-04 19:04 46.08346 5.84763 10271 ft 281 kts 236°
2026-05-04 19:04 46.07269 5.82326 10468 ft 304 kts 237°
2026-05-04 19:04 46.06098 5.79706 10742 ft 320 kts 236°
2026-05-04 19:05 46.04892 5.77030 11332 ft 326 kts 236°
2026-05-04 19:05 46.03651 5.74282 11996 ft 329 kts 236°
2026-05-04 19:05 46.02378 5.71468 12667 ft 333 kts 236°
2026-05-04 19:05 46.01125 5.68710 13339 ft 336 kts 236°
2026-05-04 19:06 45.99836 5.65889 13962 ft 339 kts 236°
2026-05-04 19:06 45.98533 5.63047 14541 ft 342 kts 236°
2026-05-04 19:06 45.97224 5.60185 15146 ft 344 kts 236°
2026-05-04 19:06 45.95919 5.57298 15732 ft 346 kts 236°
2026-05-04 19:07 45.94648 5.54427 16299 ft 349 kts 236°
2026-05-04 19:07 45.93598 5.52023 16779 ft 351 kts 236°
2026-05-04 19:07 45.92300 5.49042 17375 ft 353 kts 236°
2026-05-04 19:07 45.90985 5.46042 17958 ft 355 kts 236°
2026-05-04 19:08 45.89658 5.43029 18472 ft 358 kts 236°
2026-05-04 19:08 45.88323 5.40005 18953 ft 360 kts 236°
2026-05-04 19:08 45.86975 5.36958 19402 ft 363 kts 236°
2026-05-04 19:08 45.85616 5.33887 19866 ft 366 kts 236°
2026-05-04 19:09 45.84243 5.30789 20329 ft 368 kts 235°
2026-05-04 19:09 45.82865 5.27687 20779 ft 371 kts 235°
2026-05-04 19:09 45.81480 5.24579 21218 ft 373 kts 235°
2026-05-04 19:09 45.80170 5.21642 21643 ft 376 kts 235°
2026-05-04 19:10 45.78718 5.18393 22099 ft 378 kts 235°
2026-05-04 19:10 45.77311 5.15253 22542 ft 380 kts 235°
2026-05-04 19:10 45.75901 5.12100 22975 ft 383 kts 235°
2026-05-04 19:10 45.74443 5.08827 23419 ft 385 kts 236°
2026-05-04 19:11 45.73066 5.05530 23805 ft 387 kts 238°
2026-05-04 19:11 45.71750 5.02160 24187 ft 389 kts 239°
2026-05-04 19:11 45.70485 4.98806 24568 ft 390 kts 239°
2026-05-04 19:11 45.69201 4.95375 24948 ft 391 kts 239°
2026-05-04 19:12 45.67911 4.91954 25326 ft 391 kts 238°
2026-05-04 19:12 45.65338 4.85097 26057 ft 394 kts 239°
2026-05-04 19:12 45.64095 4.81595 26420 ft 395 kts 240°
2026-05-04 19:13 45.62867 4.78067 26783 ft 396 kts 240°
2026-05-04 19:13 45.61642 4.74545 27146 ft 397 kts 239°
2026-05-04 19:13 45.60183 4.71223 27477 ft 395 kts 232°
2026-05-04 19:13 45.58596 4.68010 27824 ft 396 kts 232°
2026-05-04 19:14 45.57004 4.64795 28169 ft 397 kts 232°
2026-05-04 19:14 45.55427 4.61615 28515 ft 398 kts 232°
2026-05-04 19:14 45.53826 4.58390 28838 ft 399 kts 232°
2026-05-04 19:14 45.52221 4.55167 29159 ft 401 kts 232°
2026-05-04 19:15 45.50603 4.51919 29452 ft 402 kts 232°
2026-05-04 19:15 45.48982 4.48673 29761 ft 403 kts 232°
2026-05-04 19:15 45.47355 4.45425 30047 ft 404 kts 231°
2026-05-04 19:15 45.45716 4.42162 30288 ft 405 kts 232°
2026-05-04 19:16 45.44073 4.38895 30519 ft 406 kts 232°
2026-05-04 19:16 45.42469 4.35702 30843 ft 405 kts 232°
2026-05-04 19:16 45.40836 4.32451 31191 ft 403 kts 232°
2026-05-04 19:16 45.39228 4.29251 31541 ft 401 kts 232°
2026-05-04 19:17 45.37595 4.26004 31878 ft 400 kts 231°
2026-05-04 19:17 45.35991 4.22822 32214 ft 399 kts 232°
2026-05-04 19:17 45.34377 4.19620 32549 ft 397 kts 231°
2026-05-04 19:17 45.32770 4.16436 32864 ft 396 kts 231°
2026-05-04 19:18 45.31164 4.13255 33164 ft 396 kts 231°
2026-05-04 19:18 45.29562 4.10090 33484 ft 395 kts 231°
2026-05-04 19:18 45.27958 4.06934 33799 ft 393 kts 231°
2026-05-04 19:18 45.26356 4.03786 34098 ft 393 kts 231°
2026-05-04 19:19 45.24760 4.00650 34311 ft 393 kts 231°
2026-05-04 19:19 45.23157 3.97502 34506 ft 393 kts 231°
2026-05-04 19:19 45.21551 3.94358 34638 ft 396 kts 231°
2026-05-04 19:19 45.19933 3.91194 34761 ft 398 kts 232°
2026-05-04 19:20 45.18306 3.88007 34913 ft 400 kts 232°
2026-05-04 19:20 45.15020 3.81574 34975 ft 404 kts 232°
2026-05-04 19:21 45.11743 3.75171 34976 ft 405 kts 232°
2026-05-04 19:21 45.08435 3.68734 34974 ft 405 kts 231°
2026-05-04 19:22 45.05121 3.62294 34978 ft 405 kts 231°
2026-05-04 19:22 45.01804 3.55865 34974 ft 405 kts 231°
2026-05-04 19:23 44.98500 3.49470 34974 ft 405 kts 231°
2026-05-04 19:23 44.95166 3.43052 34975 ft 405 kts 231°
2026-05-04 19:24 44.91832 3.36638 34974 ft 405 kts 231°
2026-05-04 19:24 44.88500 3.30222 34971 ft 405 kts 231°
2026-05-04 19:25 44.85155 3.23828 34966 ft 405 kts 231°
2026-05-04 19:25 44.81812 3.17432 34960 ft 405 kts 231°
2026-05-04 19:26 44.78471 3.11047 34950 ft 405 kts 231°
2026-05-04 19:26 44.75117 3.04667 34953 ft 405 kts 231°
2026-05-04 19:27 44.71783 2.98327 34951 ft 406 kts 231°
2026-05-04 19:27 44.68424 2.91959 34949 ft 406 kts 230°
2026-05-04 19:28 44.65049 2.85582 34938 ft 407 kts 230°
2026-05-04 19:28 44.61669 2.79213 34939 ft 407 kts 230°
2026-05-04 19:29 44.58291 2.72847 34942 ft 407 kts 230°
2026-05-04 19:29 44.54901 2.66470 34929 ft 408 kts 230°
2026-05-04 19:30 44.51500 2.60106 34931 ft 408 kts 230°
2026-05-04 19:30 44.48102 2.53749 34932 ft 408 kts 230°
2026-05-04 19:31 44.44690 2.47378 34934 ft 409 kts 230°
2026-05-04 19:31 44.41271 2.41013 34934 ft 409 kts 230°
2026-05-04 19:32 44.37885 2.34714 34935 ft 410 kts 230°
2026-05-04 19:32 44.34452 2.28344 34937 ft 410 kts 229°
2026-05-04 19:33 44.31015 2.21990 34938 ft 410 kts 230°
2026-05-04 19:33 44.27566 2.15635 34938 ft 411 kts 229°
2026-05-04 19:34 44.24117 2.09283 34938 ft 411 kts 229°
2026-05-04 19:34 44.20664 2.02929 34944 ft 411 kts 229°
2026-05-04 19:35 44.17214 1.96598 34951 ft 411 kts 229°
2026-05-04 19:35 44.13762 1.90291 34950 ft 411 kts 229°
2026-05-04 19:36 44.10288 1.83956 34957 ft 410 kts 229°
2026-05-04 19:36 44.07411 1.78710 34957 ft 410 kts 229°
2026-05-04 19:37 44.03948 1.72409 34958 ft 410 kts 229°
2026-05-04 19:37 44.00483 1.66110 34962 ft 410 kts 229°
2026-05-04 19:38 43.97014 1.59826 34963 ft 410 kts 229°
2026-05-04 19:38 43.93537 1.53543 34959 ft 410 kts 229°
2026-05-04 19:39 43.90059 1.47271 34961 ft 411 kts 230°
2026-05-04 19:39 43.86570 1.40989 34959 ft 411 kts 230°
2026-05-04 19:40 43.83076 1.34717 34962 ft 412 kts 230°
2026-05-04 19:40 43.79567 1.28451 34966 ft 412 kts 230°
2026-05-04 19:41 43.76060 1.22182 34968 ft 412 kts 230°
2026-05-04 19:41 43.72567 1.15947 34970 ft 412 kts 230°
2026-05-04 19:42 43.69052 1.09681 34973 ft 413 kts 230°
2026-05-04 19:42 43.65520 1.03420 34976 ft 413 kts 230°
2026-05-04 19:43 43.61991 0.97169 34981 ft 413 kts 230°
2026-05-04 19:43 43.58461 0.90917 34987 ft 413 kts 230°
2026-05-04 19:44 43.54968 0.84753 34990 ft 413 kts 230°
2026-05-04 19:44 43.51424 0.78526 34992 ft 413 kts 230°
2026-05-04 19:45 43.47912 0.72342 34993 ft 413 kts 230°
2026-05-04 19:45 43.44368 0.66131 34989 ft 413 kts 230°
2026-05-04 19:46 43.40825 0.59923 34990 ft 413 kts 230°
2026-05-04 19:46 43.37277 0.53725 34991 ft 412 kts 230°
2026-05-04 19:47 43.33723 0.47527 34992 ft 413 kts 230°
2026-05-04 19:47 43.30175 0.41370 34996 ft 413 kts 230°
2026-05-04 19:48 43.26608 0.35190 35002 ft 413 kts 230°
2026-05-04 19:48 43.23037 0.29005 35008 ft 413 kts 231°
2026-05-04 19:49 43.19473 0.22851 35017 ft 414 kts 231°
2026-05-04 19:49 43.15896 0.16667 35020 ft 413 kts 231°
2026-05-04 19:50 43.12321 0.10513 35027 ft 413 kts 231°
2026-05-04 19:50 43.08757 0.04402 35027 ft 413 kts 231°
2026-05-04 19:51 43.05309 -0.01508 35026 ft 413 kts 231°
2026-05-04 19:51 43.01723 -0.07646 35019 ft 413 kts 231°
2026-05-04 19:52 42.98135 -0.13766 35016 ft 413 kts 231°
2026-05-04 19:52 42.94541 -0.19879 35004 ft 413 kts 231°
2026-05-04 19:53 42.90944 -0.25990 35001 ft 413 kts 231°
2026-05-04 19:53 42.87349 -0.32089 34998 ft 413 kts 231°
2026-05-04 19:54 42.83740 -0.38189 35002 ft 414 kts 231°
2026-05-04 19:54 42.79596 -0.43570 34999 ft 414 kts 214°
2026-05-04 19:55 42.74404 -0.46885 34993 ft 417 kts 203°
2026-05-04 19:55 42.68953 -0.49747 34989 ft 418 kts 204°
2026-05-04 19:56 42.63574 -0.52576 34983 ft 417 kts 204°
2026-05-04 19:56 42.58156 -0.55426 34978 ft 417 kts 204°
2026-05-04 19:57 42.52740 -0.58263 34972 ft 417 kts 204°
2026-05-04 19:57 42.47322 -0.61089 34966 ft 417 kts 204°
2026-05-04 19:58 42.41908 -0.63913 34961 ft 417 kts 204°
2026-05-04 19:58 42.36484 -0.66738 34960 ft 417 kts 204°
2026-05-04 19:59 42.31065 -0.69559 34959 ft 417 kts 204°
2026-05-04 19:59 42.25654 -0.72371 34954 ft 417 kts 204°
2026-05-04 20:00 42.20229 -0.75172 34953 ft 417 kts 204°
2026-05-04 20:00 42.14810 -0.77975 34952 ft 418 kts 204°
2026-05-04 20:01 42.09383 -0.80778 34956 ft 418 kts 204°
2026-05-04 20:01 42.03948 -0.83577 34960 ft 418 kts 204°
2026-05-04 20:02 41.98513 -0.86366 34965 ft 418 kts 204°
2026-05-04 20:02 41.93113 -0.89144 34969 ft 419 kts 204°
2026-05-04 20:03 41.87661 -0.91931 34984 ft 419 kts 204°
2026-05-04 20:03 41.82220 -0.94706 34984 ft 418 kts 204°
2026-05-04 20:04 41.76774 -0.97487 34987 ft 418 kts 204°
2026-05-04 20:04 41.71334 -1.00265 34989 ft 419 kts 204°
2026-05-04 20:05 41.65936 -1.03171 34982 ft 415 kts 211°
2026-05-04 20:05 41.61151 -1.07358 34990 ft 412 kts 217°
2026-05-04 20:06 41.56441 -1.11694 34998 ft 413 kts 217°
2026-05-04 20:06 41.51711 -1.16033 35001 ft 413 kts 217°
2026-05-04 20:07 41.46978 -1.20369 35008 ft 413 kts 218°
2026-05-04 20:07 41.42236 -1.24697 35014 ft 413 kts 218°
2026-05-04 20:08 41.37500 -1.29007 35017 ft 412 kts 218°
2026-05-04 20:08 41.32768 -1.33318 35015 ft 412 kts 218°
2026-05-04 20:09 41.28044 -1.37623 35004 ft 411 kts 218°
2026-05-04 20:09 41.23325 -1.41907 35008 ft 411 kts 218°
2026-05-04 20:10 41.18605 -1.46184 35014 ft 410 kts 218°
2026-05-04 20:10 41.13886 -1.50453 35013 ft 410 kts 218°
2026-05-04 20:11 41.09174 -1.54710 35010 ft 410 kts 218°
2026-05-04 20:11 41.04465 -1.58961 35012 ft 409 kts 218°
2026-05-04 20:12 40.99793 -1.63172 35013 ft 409 kts 218°
2026-05-04 20:12 40.95086 -1.67397 35011 ft 408 kts 218°
2026-05-04 20:13 40.90386 -1.71606 35016 ft 408 kts 218°
2026-05-04 20:13 40.85698 -1.75804 35011 ft 407 kts 218°
2026-05-04 20:14 40.81009 -1.79997 35010 ft 407 kts 218°
2026-05-04 20:14 40.76319 -1.84184 35008 ft 407 kts 218°
2026-05-04 20:15 40.71630 -1.88363 35011 ft 407 kts 218°
2026-05-04 20:15 40.66942 -1.92526 35007 ft 406 kts 218°
2026-05-04 20:16 40.62256 -1.96677 35004 ft 406 kts 218°
2026-05-04 20:16 40.57565 -2.00823 34999 ft 406 kts 218°
2026-05-04 20:17 40.52880 -2.04966 34994 ft 406 kts 218°
2026-05-04 20:17 40.48196 -2.09107 34988 ft 406 kts 218°
2026-05-04 20:18 40.43545 -2.13217 34986 ft 406 kts 218°
2026-05-04 20:18 40.38851 -2.17341 34984 ft 406 kts 218°
2026-05-04 20:19 40.34159 -2.21453 34979 ft 406 kts 218°
2026-05-04 20:19 40.29466 -2.25557 34977 ft 406 kts 218°
2026-05-04 20:20 40.24769 -2.29671 34976 ft 406 kts 219°
2026-05-04 20:20 40.20080 -2.33777 34974 ft 406 kts 219°
2026-05-04 20:21 40.15383 -2.37874 34975 ft 406 kts 219°
2026-05-04 20:21 40.08334 -2.44002 34978 ft 406 kts 219°
2026-05-04 20:22 40.03637 -2.48081 34979 ft 406 kts 219°
2026-05-04 20:22 39.98965 -2.52127 34976 ft 406 kts 219°
2026-05-04 20:23 39.94234 -2.56225 34977 ft 406 kts 219°
2026-05-04 20:23 39.89564 -2.60264 34980 ft 406 kts 219°
2026-05-04 20:24 39.84864 -2.64316 34979 ft 406 kts 219°
2026-05-04 20:24 39.80216 -2.68326 34978 ft 406 kts 219°
2026-05-04 20:25 39.75467 -2.72409 34978 ft 406 kts 219°
2026-05-04 20:25 39.70752 -2.76454 34977 ft 406 kts 219°
2026-05-04 20:26 39.66042 -2.80498 34976 ft 406 kts 219°
2026-05-04 20:26 39.61330 -2.84533 34982 ft 406 kts 219°
2026-05-04 20:27 39.56605 -2.88567 34986 ft 407 kts 219°
2026-05-04 20:27 39.52057 -2.92445 34979 ft 407 kts 219°
2026-05-04 20:28 39.47330 -2.96472 34982 ft 407 kts 219°
2026-05-04 20:28 39.42632 -3.00465 34984 ft 407 kts 219°
2026-05-04 20:29 39.37572 -3.03933 34980 ft 417 kts 207°
2026-05-04 20:29 39.32136 -3.06562 34979 ft 417 kts 208°
2026-05-04 20:30 39.26707 -3.09203 34983 ft 417 kts 208°
2026-05-04 20:30 39.21300 -3.11832 34983 ft 418 kts 208°
2026-05-04 20:31 39.15859 -3.14473 34988 ft 418 kts 208°
2026-05-04 20:31 39.10424 -3.17105 34990 ft 417 kts 208°
2026-05-04 20:32 39.06123 -3.19187 34992 ft 417 kts 208°
2026-05-04 20:32 39.00697 -3.21790 34995 ft 419 kts 205°
2026-05-04 20:33 38.94922 -3.23464 34998 ft 427 kts 199°
2026-05-04 20:33 38.89105 -3.24963 34998 ft 427 kts 199°
2026-05-04 20:34 38.83282 -3.26475 34995 ft 427 kts 200°
2026-05-04 20:34 38.77459 -3.27998 34991 ft 427 kts 200°
2026-05-04 20:35 38.71639 -3.29508 34987 ft 427 kts 200°
2026-05-04 20:35 38.65806 -3.31016 34987 ft 428 kts 200°
2026-05-04 20:36 38.59966 -3.32518 34990 ft 428 kts 200°
2026-05-04 20:36 38.54127 -3.34016 34989 ft 428 kts 200°
2026-05-04 20:37 38.48281 -3.35509 34993 ft 428 kts 200°
2026-05-04 20:37 38.42439 -3.37004 35002 ft 428 kts 200°
2026-05-04 20:38 38.36593 -3.38504 34998 ft 428 kts 200°
2026-05-04 20:38 38.30749 -3.39999 34996 ft 428 kts 200°
2026-05-04 20:39 38.24913 -3.41487 34993 ft 428 kts 200°
2026-05-04 20:39 38.19061 -3.42974 34989 ft 429 kts 200°
2026-05-04 20:40 38.13212 -3.44468 34983 ft 429 kts 200°
2026-05-04 20:40 38.07403 -3.45950 34988 ft 429 kts 200°
2026-05-04 20:41 38.01517 -3.47446 34995 ft 429 kts 200°
2026-05-04 20:41 37.95878 -3.48876 34985 ft 429 kts 200°
2026-05-04 20:42 37.90102 -3.50323 35023 ft 419 kts 199°
2026-05-04 20:42 37.84526 -3.51716 34854 ft 411 kts 200°
2026-05-04 20:43 37.81857 -3.52386 34621 ft 406 kts 200°
2026-05-04 20:43 37.79098 -3.53082 34197 ft 402 kts 200°
2026-05-04 20:43 37.76434 -3.53756 33690 ft 400 kts 200°
2026-05-04 20:43 37.73722 -3.54441 33207 ft 397 kts 200°
2026-05-04 20:44 37.71028 -3.55121 32743 ft 394 kts 200°
2026-05-04 20:44 37.68345 -3.55795 32278 ft 391 kts 200°
2026-05-04 20:44 37.65690 -3.56463 31820 ft 388 kts 200°
2026-05-04 20:44 37.63051 -3.57125 31366 ft 384 kts 200°
2026-05-04 20:45 37.60438 -3.57780 30927 ft 382 kts 199°
2026-05-04 20:45 37.57844 -3.58430 30481 ft 379 kts 199°
2026-05-04 20:45 37.55258 -3.59078 30038 ft 377 kts 199°
2026-05-04 20:45 37.52699 -3.59718 29567 ft 373 kts 199°
2026-05-04 20:46 37.50174 -3.60347 29163 ft 368 kts 199°
2026-05-04 20:46 37.47672 -3.60972 28763 ft 364 kts 199°
2026-05-04 20:46 37.45242 -3.61576 28368 ft 359 kts 199°
2026-05-04 20:46 37.42802 -3.62183 27979 ft 355 kts 199°
2026-05-04 20:47 37.40396 -3.62784 27583 ft 351 kts 199°
2026-05-04 20:47 37.38015 -3.63381 27171 ft 348 kts 199°
2026-05-04 20:47 37.35649 -3.63994 26747 ft 345 kts 199°
2026-05-04 20:47 37.33314 -3.64614 26316 ft 343 kts 199°
2026-05-04 20:48 37.30985 -3.65239 25893 ft 341 kts 199°
2026-05-04 20:48 37.28673 -3.65857 25466 ft 339 kts 199°
2026-05-04 20:48 37.26368 -3.66470 25028 ft 339 kts 199°
2026-05-04 20:48 37.24310 -3.67014 24629 ft 338 kts 199°
2026-05-04 20:49 37.22007 -3.67625 24176 ft 338 kts 199°
2026-05-04 20:49 37.19703 -3.68237 23721 ft 338 kts 198°
2026-05-04 20:49 37.17469 -3.68827 23226 ft 339 kts 198°
2026-05-04 20:49 37.15123 -3.69439 22759 ft 337 kts 198°
2026-05-04 20:50 37.12865 -3.70027 22318 ft 335 kts 198°
2026-05-04 20:50 37.10591 -3.70622 21875 ft 333 kts 198°
2026-05-04 20:50 37.08322 -3.71215 21431 ft 332 kts 198°
2026-05-04 20:50 37.06060 -3.71807 20992 ft 331 kts 198°
2026-05-04 20:51 37.03813 -3.72394 20555 ft 330 kts 198°
2026-05-04 20:51 37.01573 -3.72980 20130 ft 328 kts 198°
2026-05-04 20:51 36.99338 -3.73564 19701 ft 327 kts 198°
2026-05-04 20:51 36.97115 -3.74145 19272 ft 326 kts 197°
2026-05-04 20:52 36.94891 -3.74728 18849 ft 326 kts 197°
2026-05-04 20:52 36.92666 -3.75312 18425 ft 327 kts 197°
2026-05-04 20:52 36.90442 -3.75892 17963 ft 327 kts 197°
2026-05-04 20:52 36.88223 -3.76471 17532 ft 325 kts 197°
2026-05-04 20:53 36.86019 -3.77046 17116 ft 323 kts 197°
2026-05-04 20:53 36.83822 -3.77614 16712 ft 322 kts 197°
2026-05-04 20:53 36.81630 -3.78180 16302 ft 320 kts 197°
2026-05-04 20:53 36.79483 -3.78738 15909 ft 319 kts 197°
2026-05-04 20:54 36.77373 -3.79287 15526 ft 318 kts 197°
2026-05-04 20:54 36.75217 -3.79850 15128 ft 318 kts 197°
2026-05-04 20:54 36.73052 -3.80416 14736 ft 318 kts 197°
2026-05-04 20:54 36.70906 -3.81025 14338 ft 315 kts 202°
2026-05-04 20:55 36.68854 -3.81954 13954 ft 313 kts 205°
2026-05-04 20:55 36.66811 -3.82896 13540 ft 313 kts 205°
2026-05-04 20:55 36.64776 -3.83826 13127 ft 311 kts 205°
2026-05-04 20:55 36.62750 -3.84752 12738 ft 310 kts 205°
2026-05-04 20:56 36.60730 -3.85675 12345 ft 308 kts 205°
2026-05-04 20:56 36.58722 -3.86595 11944 ft 307 kts 205°
2026-05-04 20:56 36.56721 -3.87512 11549 ft 306 kts 205°
2026-05-04 20:56 36.54724 -3.88425 11152 ft 305 kts 205°
2026-05-04 20:57 36.52730 -3.89336 10744 ft 304 kts 205°
2026-05-04 20:57 36.50762 -3.90236 10511 ft 297 kts 205°
2026-05-04 20:57 36.48859 -3.91105 10336 ft 286 kts 205°
2026-05-04 20:57 36.47008 -3.91949 9786 ft 281 kts 205°
2026-05-04 20:58 36.45194 -3.92777 9406 ft 269 kts 205°
2026-05-04 20:58 36.43484 -3.93553 9279 ft 256 kts 205°
2026-05-04 20:58 36.41843 -3.94298 9170 ft 246 kts 205°
2026-05-04 20:58 36.40274 -3.95016 9068 ft 239 kts 207°
2026-05-04 20:59 36.38866 -3.96038 8983 ft 232 kts 223°
2026-05-04 20:59 36.37667 -3.97373 8925 ft 232 kts 226°
2026-05-04 20:59 36.36472 -3.98709 8872 ft 231 kts 225°
2026-05-04 20:59 36.35292 -4.00024 8821 ft 231 kts 226°
2026-05-04 21:00 36.34398 -4.01618 8767 ft 225 kts 255°
2026-05-04 21:00 36.34393 -4.03525 8714 ft 227 kts 287°
2026-05-04 21:00 36.35246 -4.05155 8495 ft 228 kts 307°
2026-05-04 21:00 36.36304 -4.06611 8225 ft 227 kts 308°
2026-05-04 21:01 36.37368 -4.08058 7930 ft 227 kts 308°
2026-05-04 21:01 36.38431 -4.09511 7651 ft 227 kts 307°
2026-05-04 21:01 36.39486 -4.10957 7370 ft 226 kts 308°
2026-05-04 21:01 36.40540 -4.12404 7096 ft 225 kts 308°
2026-05-04 21:02 36.41566 -4.13816 6839 ft 225 kts 308°
2026-05-04 21:02 36.42595 -4.15241 6568 ft 225 kts 308°
2026-05-04 21:02 36.43642 -4.16697 6288 ft 225 kts 308°
2026-05-04 21:02 36.44687 -4.18145 6000 ft 225 kts 309°
2026-05-04 21:03 36.45728 -4.19592 5721 ft 225 kts 309°
2026-05-04 21:03 36.46765 -4.21038 5455 ft 224 kts 310°
2026-05-04 21:03 36.47804 -4.22482 5180 ft 224 kts 311°
2026-05-04 21:03 36.48846 -4.23927 4906 ft 224 kts 311°
2026-05-04 21:04 36.49865 -4.25343 4801 ft 216 kts 312°
2026-05-04 21:04 36.50863 -4.26729 4551 ft 215 kts 312°
2026-05-04 21:04 36.51862 -4.28116 4275 ft 216 kts 313°
2026-05-04 21:04 36.52863 -4.29508 3984 ft 216 kts 313°
2026-05-04 21:05 36.53862 -4.30897 3698 ft 216 kts 313°
2026-05-04 21:05 36.54847 -4.32267 3420 ft 215 kts 313°
2026-05-04 21:05 36.55721 -4.33481 3172 ft 215 kts 313°
2026-05-04 21:05 36.56670 -4.34804 2901 ft 214 kts 313°
2026-05-04 21:06 36.57660 -4.36184 2612 ft 212 kts 313°
2026-05-04 21:06 36.58624 -4.37528 2334 ft 204 kts 313°
2026-05-04 21:06 36.59553 -4.38823 2072 ft 197 kts 312°
2026-05-04 21:06 36.60442 -4.40062 1836 ft 186 kts 312°
2026-05-04 21:07 36.61281 -4.41232 1579 ft 176 kts 311°
2026-05-04 21:07 36.62077 -4.42343 1340 ft 167 kts 311°
2026-05-04 21:07 36.62829 -4.43392 1140 ft 158 kts 311°
2026-05-04 21:07 36.63548 -4.44397 930 ft 153 kts 310°
2026-05-04 21:08 36.64251 -4.45379 734 ft 151 kts 310°
2026-05-04 21:08 36.64929 -4.46325 552 ft 149 kts 310°
2026-05-04 21:08 36.65616 -4.47286 363 ft 148 kts 310°
2026-05-04 21:08 36.66301 -4.48244 155 ft 148 kts 310°
2026-05-04 21:09 36.66969 -4.49181 46 ft 134 kts 311°
2026-05-04 21:09 36.67462 -4.49872 51 ft 63 kts 312°
2026-05-04 21:09 36.67681 -4.50145 52 ft 36 kts 326°
2026-05-04 21:09 36.67826 -4.50229 52 ft 17 kts 342°
2026-05-04 21:10 36.67870 -4.50144 44 ft 16 kts 124°
2026-05-04 21:10 36.67799 -4.50051 44 ft 14 kts 133°
2026-05-04 21:10 36.67738 -4.49966 44 ft 13 kts 128°
2026-05-04 21:10 36.67724 -4.49894 43 ft 7 kts 59°
2026-05-04 21:11 36.67738 -4.49839 42 ft 6 kts 103°
2026-05-04 21:11 36.67719 -4.49797 42 ft 5 kts 124°
2026-05-04 21:11 36.67700 -4.49766 42 ft 4 kts 129°
2026-05-04 21:11 36.67680 -4.49739 41 ft 4 kts 132°
2026-05-04 21:12 36.67654 -4.49703 42 ft 7 kts 132°
2026-05-04 21:12 36.67659 -4.49662 42 ft 5 kts 43°
2026-05-04 21:12 36.67681 -4.49638 42 ft 4 kts 43°
2026-05-04 21:12 36.67698 -4.49618 42 ft 3 kts 42°
2026-05-04 21:13 36.67711 -4.49604 42 ft 2 kts 41°
2026-05-04 21:13 36.67719 -4.49596 42 ft 1 kts 41°
2026-05-04 21:13 36.67730 -4.49584 42 ft 2 kts 41°
2026-05-04 21:13 36.67735 -4.49577 42 ft 0 kts 41°